Regional Weather Roundup
Issued by NWS

Home | Current Version | Previous Version | Graphics & Text | Print | Product List | Glossary On
Versions: 1 2 3 4 5 6 7 8 9 10 11 12 13 14 15 16 17 18 19 20 21 22 23 24 25 26 27 28 29 30 31 32 33 34 35 36 37 38 39 40 41 42 43 44 45 46 47 48 49 50
000
ASUS43 KBIS 280010
RWRND

NORTH DAKOTA REGIONAL WEATHER ROUNDUP
NATIONAL WEATHER SERVICE BISMARCK ND
600 PM CST SAT DEC 27 2014

NOTE: "FAIR" INDICATES FEW OR NO CLOUDS BELOW 12,000 FEET WITH NO
SIGNIFICANT WEATHER AND/OR OBSTRUCTIONS TO VISIBILITY.


NDZ001>003-009>011-017-280100-
NORTHWEST NORTH DAKOTA

CITY           SKY/WX    TMP DP  RH WIND       PRES   REMARKS
WILLISTON      CLOUDY    24  17  74 NE5       30.00R WCI  18
6HR MIN TEMP:  21; 6HR MAX TEMP:  26;

MINOT          CLOUDY    21  14  74 NW7       29.99R WCI  12
MINOT AFB      CLOUDY    21  18  91 NW13      30.00R WCI   8
$$

NDZ018>021-031>035-040>046-280100-
SOUTHWEST NORTH DAKOTA

CITY           SKY/WX    TMP DP  RH WIND       PRES   REMARKS
BISMARCK       PTCLDY    22  16  78 W7        30.02R WCI  13
6HR MIN TEMP:  22; 6HR MAX TEMP:  30;

DICKINSON      CLOUDY    20  13  74 W9        29.96S WCI   9
GARRISON         N/A     17  13  84 NW7       29.98R WCI   8
6HR MIN TEMP:  15; 6HR MAX TEMP:  26;

HETTINGER ARPT CLOUDY    21  14  74 W6        30.01R WCI  13
$$

NDZ004>008-012>016-024-026-027-054-280100-
NORTHEAST NORTH DAKOTA

CITY           SKY/WX    TMP DP  RH WIND       PRES   REMARKS
GRAND FORKS    LGT SNOW  20  16  84 CALM      30.03S FOG
GRND FRKS AFB  CLOUDY    19  19 100 CALM      30.03S FOG
DEVILS LAKE    CLOUDY    21  16  79 CALM      29.97S
$$

NDZ022-023-025-028>030-036>039-047>053-280100-
SOUTHEAST NORTH DAKOTA

CITY           SKY/WX    TMP DP  RH WIND       PRES   REMARKS
FARGO          CLOUDY    24  17  74 W5        30.03S WCI  18
6HR MIN TEMP:  19; 6HR MAX TEMP:  26; 6HR PCP: TRACE;

JAMESTOWN      CLOUDY    23  19  85 SW3       29.98S
$$



USA.gov is the U.S. government's official web portal to all federal, state and local government web resources and services.